Погода в Новоалександровке

Украина / Днепропетровская область     48°21′02″N   34°59′48″E
темп.,
°C
ветер,
м/с
пор.,
м/с
влажн.,
%
обл.,
%
осадки,
мм/ч
давл.,
гПа
погр.,
м
12 апреля, пн
пн1200:00+10св51059100 0.0 1023463
03:00+9ссв5962100 0.0 1022452
06:00+9св4870100 0.0 1020474
09:00+9всв3682100 0.0 1020337
12:00+14юв3467100 0.0 10201097
15:00+14в2267100 0.0 1020732
18:00+14юв2266100 0.0 1020743
21:00+12ююз3578100 0.1 1021137
13 апреля, вт
вт1300:00+11ю2487100 0.3 1021202
03:00+10ю3590100 0.3 1021257
06:00+9ю2492100 0.2 1021239
09:00+10ю348561 0.2 1022413
12:00+14ю446292 0.0 10211158
15:00+15ююв3454100 0.1 10201474
18:00+12ююв4777100 0.0 1020331
21:00+11юв247598 0.0 1021134
14 апреля, ср
ср1400:00+10ююв3681100 0.0 1020260
03:00+8ююв2391100 0.0 101987
06:00+7ююв349632 0.0 101985
09:00+11ю3379100 0.0 1019486
12:00+14ююв346098 0.1 10181337
15:00+15ююв4451100 0.1 10161623
18:00+13юв3467100 0.0 1016187
21:00+11юв347597 0.0 101664
15 апреля, чт
чт1500:00+9ююв347878 0.0 101667
03:00+7ююв3584100 0.0 101582
06:00+8ююв368299 0.0 1015176
09:00+11ююв456581 0.0 1015511
12:00+15ююв565156 0.0 10141339
15:00+14ююз6659100 0.0 10131336
18:00+9ююз0187100 3.2 1014175
21:00+9ю3590100 4.3 1013371
16 апреля, пт
пт1600:00+9ююв3591100 0.1 1013448
03:00+8ююз488799 0.2 1013491
06:00+8ю378892 0.0 1013482
09:00+8ю5682100 0.1 1013658
12:00+9ююз5782100 0.2 1014669
15:00+9ююз787699 0.4 1014969
18:00+9ююз677199 0.1 10151051
21:00+7юз5882100 0.1 1016689